Regional Weather Roundup
Issued by NWS

Home | Current Version | Previous Version | Text Only | Print | Product List | Glossary Off
Versions: 1 2 3 4 5 6 7 8 9 10 11 12 13 14 15 16 17 18 19 20 21 22 23 24 25 26 27 28 29 30 31 32 33 34 35 36 37 38 39 40 41 42 43 44 45 46 47 48 49 50

000
ASUS43 KMKX 020300
RWRWI

WISCONSIN REGIONAL WEATHER ROUNDUP
NATIONAL WEATHER SERVICE MILWAUKEE/SULLIVAN WI
1000 PM CDT TUE SEP 01 2015

NOTE: "FAIR" INDICATES FEW OR NO CLOUDS BELOW 12,000 FEET WITH NO
SIGNIFICANT WEATHER AND/OR OBSTRUCTIONS TO VISIBILITY.

WIZ001-002-006>008-014>016-023>028-020400-
NORTHWEST WISCONSIN

CITY           SKY/WX    TMP DP  RH WIND       PRES   REMARKS
SUPERIOR ARPT  PTCLDY    67  67  99 CALM      29.92R FOG
ASHLAND        PTCLDY    69  69 100 CALM      29.95R FOG
HAYWARD        PTCLDY    71  69  93 CALM      29.96R FOG
SIREN          PTCLDY    73  72  94 CALM      29.94R
CUMBERLAND     MOCLDY    72  72 100 CALM      29.96R FOG
RICE LAKE      MOCLDY    73  71  92 CALM      29.97R
CHETEK         MOCLDY   N/A N/A N/A CALM      29.95R
LADYSMITH      CLOUDY    74  73  94 CALM      29.98R FOG
EAU CLAIRE     MOCLDY    78  73  84 SW5       29.94R HX  81
MENOMONIE      PTCLDY    75  73  92 S3        29.94R
NEW RICHMOND   PTCLDY    76  75  95 CALM      29.95R
OSCEOLA        MOCLDY    75  75 100 CALM      29.96R
$$

WIZ003>005-009-010-017-018-020400-
NORTH CENTRAL WISCONSIN

CITY           SKY/WX    TMP DP  RH WIND       PRES   REMARKS
MANITOWISH WTR MOCLDY    67  67 100 CALM      29.99S FOG
ARBOR VITAE    MOCLDY    72  70  94 CALM      30.00R
WOODRUFF       MOCLDY    72  70  94 CALM      30.00R
RHINELANDER    FOG       71  69  93 CALM      30.01R VSB 1
EAGLE RIVER    MOCLDY    68  67  99 CALM      29.99S FOG
LAND O LAKES   PTCLDY    66  66  98 CALM      30.01R FOG
PHILLIPS       PTCLDY    71  71 100 CALM      29.99R
TOMAHAWK       CLOUDY    70  69  96 CALM      30.00R FOG
MEDFORD          N/A     71  71 100 CALM      29.99R FOG
MERRILL        CLOUDY    73  73 100 CALM      29.99R FOG
$$

WIZ029-030-035-036-043>047-020400-
CENTRAL WISCONSIN

CITY           SKY/WX    TMP DP  RH WIND       PRES   REMARKS
WAUSAU         MOCLDY    76  71  85 CALM      29.96R
MOSINEE        CLEAR     73  73 100 CALM      29.99R
MARSHFIELD     MOCLDY    74  69  85 CALM      29.98R
STEVENS POINT  MOCLDY    74  70  86 CALM      29.98R
WAUPACA        MOCLDY    76  74  96 CALM      29.97R
WAUTOMA        NOT AVBL
WISC RAPIDS    MOCLDY    76  71  85 CALM      29.98R
CAMP DOUGLAS   NOT AVBL
$$

WIZ011>013-019>022-031-037>040-048>050-020400-
NORTHEAST WISCONSIN

CITY           SKY/WX    TMP DP  RH WIND       PRES   REMARKS
ANTIGO         CLOUDY    73  70  90 CALM      30.00R
SHAWANO        CLOUDY    77  72  84 CALM      29.96S
OCONTO         MOCLDY    73  73 100 CALM      29.94S
STURGEON BAY   PTCLDY    73  66  78 S8        29.98S
GREEN BAY      MOCLDY    75  71  87 S3        29.96S
MANITOWOC      NOT AVBL
APPLETON       MOCLDY    75  70  83 VRB5      29.96S
CLINTONVILLE   MOCLDY    72  70  94 CALM      29.96R
OSHKOSH        PTCLDY    76  71  85 S7        29.97R
$$

WIZ032>034-041-042-053>061-020400-
SOUTHWEST WISCONSIN

CITY           SKY/WX    TMP DP  RH WIND       PRES   REMARKS
LA CROSSE      PTCLDY    79  73  82 S6        29.94R HX  82
SPARTA         PTCLDY    76  70  80 CALM      29.96R
VIROQUA          N/A     75  75 100 SW5       30.00R
BOSCOBEL       MOCLDY    75  73  93 CALM      29.97R
PRAIRIE DU CHI MOCLDY    77  71  82 CALM      29.97R
PLATTEVILLE    MOCLDY    75  73  93 S7        30.00R
$$

WIZ056-057-062-063-064-067-068-020400-
SOUTH CENTRAL WISCONSIN

CITY           SKY/WX    TMP DP  RH WIND       PRES   REMARKS
REEDSBURG      MOCLDY    76  73  89 SW5       29.97R
BARABOO/DELLS  MOCLDY    75  70  83 CALM      29.98R
LONE ROCK      NOT AVBL
MINERAL POINT  MOCLDY    77  73  88 S6        30.01R
MADISON        PTCLDY    78  71  79 S5        29.99R HX  80
MIDDLETON      PTCLDY    74  73  96 S3        30.00R
WATERTOWN      PTCLDY    73  73 100 CALM      29.99R
MONROE         PTCLDY    77  72  83 SW12      30.00S
JANESVILLE     CLEAR     77  72  83 S3        30.00R
$$

WIZ051-052-058>065-066-070>072-020400-
SOUTHEAST WISCONSIN

CITY           SKY/WX    TMP DP  RH WIND       PRES   REMARKS
MILWAUKEE      PTCLDY    79  70  74 S7        30.00R HX  82
WAUKESHA       CLEAR     73  70  88 S5        30.02
MILWAUKEE/TIMM MOCLDY    77  68  73 S5        30.01R
RACINE         CLEAR     78  69  73 SW6       30.02R HX  80
BURLINGTON     CLEAR     70  69  95 CALM      30.01R
KENOSHA        CLEAR     77  71  82 S6        30.01R
FOND DU LAC    PTCLDY    74  71  91 SW6       29.98R
SHEBOYGAN      CLEAR     72  69  90 CALM      29.98S FOG
WEST BEND      CLEAR     72  68  88 CALM      30.00R
JUNEAU         PTCLDY    75  71  87 S5        30.00S
$$

LSZ147-162-020400-
LAKE SUPERIOR

STATION/POSITION TIME  TEMP    WIND        PRES    WAVE
                       AIR SEA DIR/SP/G            HT/PER
                 (UTC) (F)     (DEG/KT/KT) (MB)    (FT/S)
W MID LAKE BUOY  0150   60 56  210/  2/  4 1013.1R   0
DEVILS ISLAND    0200   69     120/  5/  6 1013.2R
PORT WING        0200   69      40/  5/  7 1013.2
SAXON HARBOR     0240   74        CALM     1013.2R
$$

LMZ867-665-643>646-020400-
LAKE MICHIGAN

STATION/POSITION TIME  TEMP    WIND        PRES    WAVE
                       AIR SEA DIR/SP/G            HT/PER
                 (UTC) (F)     (DEG/KT/KT) (MB)    (FT/S)
CHAMBERS ISLAND  0200   74     160/  3/  7 1013.9S
S GREEN BAY BUOY 0230   72 67  180/  6/  6 1015.6R
N MID LAKE BUOY  0150   67 65  210/ 14/ 16 1014.0R   2/ 4
NORTHPORT PIER   0200   70     190/  5/  9 1013.9S
SISTER BAY       0219   69     150/ 10/ 13   N/A
ALGOMA LAKESHORE 0214             CALM       N/A
KEWAUNEE LAKESHO 0200   51     170/  5/  5 1013.7R
SHEBOYGAN LAKESH 0200   66     180/  8/  9 1015.0R
PORT WASHINGTON  0200   63      CALM  /  1 1015.6S
ATWATER BUOY     0200   59 50  170/  8/  8 1016.6R
MILWAUKEE LAKESH 0210   65     140/  1/  2   N/A
S MID LAKE BUOY  0150   73 70  180/ 10/ 12 1015.5R   1/ 4
KENOSHA   LAKESH 0200   80     190/  6/  8 1015.6R
$$

TC  - TEMPERATURE IN CELSIUS
VSB - VISIBILITY IN STATUTE MILES
WCI - WIND CHILL INDEX
HX  - HEAT INDEX




USA.gov is the U.S. government's official web portal to all federal, state and local government web resources and services.